108P/Ciffreo (2007)

Japanese version
Home page
Updated on April 4, 2008

---------------------------------------------------------------------

* Profile

* Pictures

* Orbital Elements

The following orbital elements are taken from MPC 51823:

Epoch 2007 June 29.0 TT = JDT 2454280.5
T 2007 July 18.0447 TT                                  MPC
q   1.719122             (2000.0)            P               Q
n   0.1357444      Peri.  357.9758      +0.6188368      -0.7640352
a   3.749628       Node    53.7390      +0.7238421      +0.4644289
e   0.541522       Incl.   13.0783      +0.3051125      +0.4478348
P   7.26
From 94 observations 1985-2000, mean residual 0".8.  Nongravitational
     parameters A1 = +0.15, A2 = -0.0236.

* Finding Charts

* Magnitudes Graph

        m1 = 9.0 + 5 log d + 25.0 log r

---------------------------------------------------------------------

The orbital elements are published at the MPC Ephemerides and Orbital Elements.
The charts are made with StellaNavigator Ver.2.0 for Windows (AstroArts / ASCII).
The magnitudes graphs are made with Comet for Windows.

---------------------------------------------------------------------

Copyright(C) Seiichi Yoshida (comet@aerith.net). All rights reserved.